Weather History for Clearfield, PA

Change the Weather History Date:

Thursday, July 4, 2013

  Actual Average (KDUJ) Record (KDUJ)
Temperature  
Mean Temperature 75 °F 68 °F  
Max Temperature 84 °F 79 °F 91 °F (1966)
Min Temperature 66 °F 58 °F 45 °F (1968)
Degree Days  
Heating Degree Days 0 1  
Month to date heating degree days 4  
Since 1 June heating degree days 89  
Since 1 July heating degree days 4  
Cooling Degree Days 10 4  
Month to date cooling degree days 16  
Year to date cooling degree days 110  
Since 1 June cooling degree days 87  
Growing Degree Days 25 (Base 50)    
Moisture  
Dew Point 67 °F    
Average Humidity 86    
Maximum Humidity 100    
Minimum Humidity 53    
Precipitation  
Precipitation 0.02 in 0.14 in 1.82 in (2004)
Month to date precipitation 0.56  
Sea Level Pressure  
Sea Level Pressure 30.20 in    
Wind  
Wind Speed 2 mph (WNW)    
Max Wind Speed 12 mph    
Max Gust Speed -    
Visibility 6 miles    
Events Fog , Rain    
T = Trace of Precipitation, MM = Missing Value Source: NWS Daily Summary

Daily Weather History Graph

Daily Weather History Graph

Search for Another Location

Airport:

Trip Planner

Search our weather history database for the weather conditions in past years. The results will help you decide how hot, cold, wet, or windy it might be!

Date:

Astronomy

Jul. 04, 2013 Rise Set
Actual Time 5:46 AM EDT 8:49 PM EDT
Civil Twilight 5:13 AM EDT 9:22 PM EDT
Nautical Twilight 4:31 AM EDT 10:04 PM EDT
Astronomical Twilight 3:41 AM EDT 10:54 PM EDT
Moon 3:03 AM EDT (7/4) 5:51 PM EDT (7/4)
Length of Visible Light 16h 08m
Length of Day
15h 02m
Waning Crescent, 11% of the Moon is Illuminated
Jul 4
Waning Crescent
Jul 8
New
Jul 15
First Quarter
Jul 22
Full
Jul 29
Last Quarter

Hourly Weather History & Observations

Time (EDT) Temp. Heat Index Dew Point Humidity Pressure Visibility Wind Dir Wind Speed Gust Speed Precip Events Conditions
12:54 AM 71.1 °F - 68.0 °F 90% 30.20 in 10.0 mi Calm Calm - 0.00 in   Mostly Cloudy
1:54 AM 69.1 °F - 68.0 °F 96% 30.19 in 7.0 mi Calm Calm - N/A   Clear
2:54 AM 68.0 °F - 66.9 °F 96% 30.18 in 5.0 mi Calm Calm - N/A   Partly Cloudy
3:02 AM 68.0 °F - 66.2 °F 94% 30.21 in 2.5 mi North 3.5 mph - N/A   Scattered Clouds
3:18 AM 69.8 °F - 66.2 °F 88% 30.20 in 9.0 mi Calm Calm - N/A   Scattered Clouds
3:54 AM 68.0 °F - 66.9 °F 96% 30.19 in 9.0 mi Calm Calm - N/A   Scattered Clouds
4:46 AM 66.2 °F - 66.2 °F 100% 30.22 in 1.8 mi Calm Calm - N/A   Partly Cloudy
4:54 AM 66.9 °F - 66.0 °F 97% 30.20 in 1.8 mi Calm Calm - N/A   Partly Cloudy
4:57 AM 66.2 °F - 66.2 °F 100% 30.23 in 3.0 mi Calm Calm - N/A   Partly Cloudy
5:54 AM 66.9 °F - 66.0 °F 97% 30.21 in 2.5 mi Calm Calm - N/A   Mostly Cloudy
6:05 AM 66.2 °F - 66.2 °F 100% 30.23 in 5.0 mi Calm Calm - N/A   Scattered Clouds
6:09 AM 66.2 °F - 64.4 °F 94% 30.23 in 1.5 mi Calm Calm - N/A   Scattered Clouds
6:13 AM 66.2 °F - 64.4 °F 94% 30.23 in 0.2 mi North 3.5 mph - N/A Fog Fog
6:29 AM 66.2 °F - 66.2 °F 100% 30.23 in 1.0 mi Calm Calm - N/A   Mostly Cloudy
6:36 AM 68.0 °F - 66.2 °F 94% 30.23 in 3.0 mi Calm Calm - N/A   Mostly Cloudy
6:54 AM 68.0 °F - 66.9 °F 96% 30.21 in 8.0 mi Calm Calm - N/A   Mostly Cloudy
7:54 AM 69.1 °F - 66.9 °F 93% 30.22 in 10.0 mi Calm Calm - N/A   Clear
8:54 AM 72.0 °F - 66.9 °F 84% 30.23 in 10.0 mi WSW 3.5 mph - N/A   Partly Cloudy
9:54 AM 75.9 °F - 66.9 °F 74% 30.23 in 10.0 mi WSW 3.5 mph - N/A   Mostly Cloudy
10:54 AM 77.0 °F - 66.0 °F 69% 30.23 in 10.0 mi WSW 11.5 mph - N/A   Mostly Cloudy
11:54 AM 78.1 °F - 66.0 °F 66% 30.22 in 10.0 mi WSW 6.9 mph - N/A   Overcast
12:54 PM 80.1 °F 82.1 °F 66.0 °F 62% 30.22 in 10.0 mi SSW 8.1 mph - N/A   Partly Cloudy
1:54 PM 82.0 °F 83.8 °F 64.9 °F 56% 30.20 in 10.0 mi WSW 8.1 mph - N/A   Clear
2:54 PM 82.0 °F 83.8 °F 64.9 °F 56% 30.20 in 10.0 mi WSW 5.8 mph - N/A   Scattered Clouds
3:54 PM 82.9 °F 85.0 °F 66.0 °F 56% 30.18 in 10.0 mi South 4.6 mph - N/A   Scattered Clouds
4:54 PM 80.1 °F 81.9 °F 64.9 °F 60% 30.16 in 10.0 mi SSW 4.6 mph - N/A   Overcast
5:54 PM 84.0 °F 85.8 °F 64.9 °F 53% 30.16 in 10.0 mi Variable 5.8 mph - N/A   Clear
6:54 PM 78.1 °F - 68.0 °F 71% 30.17 in 7.0 mi South 3.5 mph - 0.01 in Rain Rain
7:54 PM 77.0 °F - 69.1 °F 76% 30.18 in 10.0 mi Calm Calm - 0.01 in Rain Light Rain
8:54 PM 73.9 °F - 69.1 °F 85% 30.18 in 10.0 mi Calm Calm - 0.00 in   Partly Cloudy
9:54 PM 73.0 °F - 70.0 °F 90% 30.19 in 7.0 mi Calm Calm - N/A   Partly Cloudy
10:17 PM 71.6 °F - 69.8 °F 94% 30.21 in 1.8 mi North 3.5 mph - N/A   Scattered Clouds
10:33 PM 71.6 °F - 69.8 °F 94% 30.21 in 3.0 mi Calm Calm - N/A   Partly Cloudy
10:46 PM 71.6 °F - 69.8 °F 94% 30.21 in 2.0 mi Calm Calm - N/A   Partly Cloudy
10:54 PM 72.0 °F - 70.0 °F 93% 30.18 in 6.0 mi Calm Calm - N/A   Clear
11:01 PM 71.6 °F - 69.8 °F 94% 30.21 in 0.8 mi North 3.5 mph - N/A   Mist
11:10 PM 69.8 °F - 69.8 °F 100% 30.21 in 0.2 mi North 3.5 mph - N/A Fog Fog
11:18 PM 69.8 °F - 68.0 °F 94% 30.21 in 1.0 mi North 4.6 mph - N/A   Mist
11:20 PM 69.8 °F - 68.0 °F 94% 30.21 in 2.0 mi North 4.6 mph - N/A   Scattered Clouds
11:28 PM 69.8 °F - 68.0 °F 94% 30.21 in 7.0 mi North 4.6 mph - N/A   Scattered Clouds
11:54 PM 69.1 °F - 68.0 °F 96% 30.18 in 10.0 mi Calm Calm - N/A   Clear